Fort Leonard Wood, MO

12:04 PM CDT on October 20, 2017 (GMT -0500)
Waynesville Regional At Forney Field

Weather History for KTBN - February, 2012

Change the Weather History Date:

Wednesday, February 8, 2012

  Actual Average Record
Temperature  
Mean Temperature 32 °F -  
Max Temperature 33 °F 44 °F 68 °F (1999)
Min Temperature 30 °F 29 °F 10 °F (2011)
Degree Days  
Heating Degree Days 34    
Moisture  
Dew Point 31 °F    
Average Humidity 98    
Maximum Humidity 100    
Minimum Humidity 87    
Precipitation  
Precipitation 0.00 in - - ()
Sea Level Pressure  
Sea Level Pressure 30.40 in    
Wind  
Wind Speed 6 mph (NW)    
Max Wind Speed 9 mph    
Max Gust Speed -    
Visibility 8 miles    
Events Snow    
Averages and records for this station are not official NWS values.
T = Trace of Precipitation, MM = Missing Value Source: NWS Daily Summary

Daily Weather History Graph

Daily Weather History Graph

Search for Another Location

Airport or City:

Trip Planner

Search our weather history database for the weather conditions in past years. The results will help you decide how hot, cold, wet, or windy it might be!

Date:

Astronomy

Feb. 08, 2012 Rise Set
Actual Time 7:06 AM CST 5:39 PM CST
Civil Twilight 6:39 AM CST 6:06 PM CST
Nautical Twilight 6:08 AM CST 6:37 PM CST
Astronomical Twilight 5:37 AM CST 7:08 PM CST
Moon 6:56 PM CST (2/8) 7:11 AM CST (2/8)
Length of Visible Light 11h 27m
Length of Day
10h 33m
Full, 99% of the Moon is Illuminated
Feb 8
Full
Feb 14
Last Quarter
Feb 21
New
Feb 29
First Quarter
Mar 8
Full

Hourly Weather History & Observations

Time (CST) Temp. Windchill Dew Point Humidity Pressure Visibility Wind Dir Wind Speed Gust Speed Precip Events Conditions
12:11 AM 32.0 °F 26.4 °F 32.0 °F 100% 30.36 in 8.0 mi North 5.8 mph - N/A   Overcast
12:25 AM 32.0 °F 26.4 °F 32.0 °F 100% 30.36 in 8.0 mi NNW 5.8 mph - N/A   Overcast
12:29 AM 32.0 °F 26.4 °F 32.0 °F 100% 30.36 in 8.0 mi NNW 5.8 mph - N/A   Overcast
12:37 AM 32.0 °F 26.4 °F 32.0 °F 100% 30.36 in 9.0 mi NNW 5.8 mph - N/A   Overcast
12:43 AM 32.0 °F 27.5 °F 32.0 °F 100% 30.36 in 8.0 mi North 4.6 mph - N/A   Overcast
12:55 AM 32.0 °F 25.6 °F 31.8 °F 99% 30.36 in 7.0 mi NNW 6.9 mph - 0.00 in   Overcast
1:11 AM 32.0 °F 25.6 °F 32.0 °F 100% 30.36 in 10.0 mi NW 6.9 mph - N/A   Overcast
1:26 AM 32.0 °F 25.6 °F 32.0 °F 100% 30.37 in 10.0 mi NNW 6.9 mph - N/A   Overcast
1:31 AM 32.0 °F 24.8 °F 32.0 °F 100% 30.37 in 10.0 mi NNW 8.1 mph - N/A   Overcast
1:37 AM 32.0 °F 25.6 °F 32.0 °F 100% 30.38 in 9.0 mi NNW 6.9 mph - N/A   Overcast
1:55 AM 31.5 °F 24.9 °F 31.3 °F 99% 30.38 in 7.0 mi NW 6.9 mph - N/A   Overcast
2:18 AM 32.0 °F 24.8 °F 30.2 °F 93% 30.38 in 8.0 mi NNW 8.1 mph - N/A   Overcast
2:55 AM 31.1 °F 23.7 °F 30.9 °F 99% 30.38 in 7.0 mi NNW 8.1 mph - N/A   Overcast
3:25 AM 30.2 °F 24.3 °F 30.2 °F 100% 30.37 in 6.0 mi NNW 5.8 mph - N/A   Overcast
3:55 AM 30.7 °F 23.3 °F 30.4 °F 99% 30.38 in 7.0 mi NNW 8.1 mph - N/A   Overcast
3:57 AM 30.2 °F 21.9 °F 30.2 °F 100% 30.38 in 7.0 mi NNW 9.2 mph - N/A   Overcast
4:05 AM 30.2 °F 23.4 °F 30.2 °F 100% 30.38 in 8.0 mi NNW 6.9 mph - N/A   Overcast
4:55 AM 30.7 °F 24.9 °F 30.6 °F 99% 30.39 in 8.0 mi NW 5.8 mph - N/A   Overcast
5:46 AM 30.2 °F 24.3 °F 30.2 °F 100% 30.39 in 8.0 mi NNW 5.8 mph - N/A   Overcast
5:47 AM 30.2 °F 24.3 °F 30.2 °F 100% 30.39 in 8.0 mi NNW 5.8 mph - N/A   Overcast
5:54 AM 30.2 °F 25.4 °F 30.2 °F 100% 30.39 in 9.0 mi NW 4.6 mph - N/A   Overcast
5:55 AM 30.9 °F 26.2 °F 30.6 °F 99% 30.39 in 9.0 mi NW 4.6 mph - N/A   Overcast
5:57 AM 30.2 °F 25.4 °F 30.2 °F 100% 30.39 in 9.0 mi NW 4.6 mph - N/A   Overcast
6:15 AM 30.2 °F 24.3 °F 30.2 °F 100% 30.40 in 9.0 mi NW 5.8 mph - N/A   Overcast
6:16 AM 30.2 °F 24.3 °F 30.2 °F 100% 30.40 in 9.0 mi NW 5.8 mph - N/A   Overcast
6:29 AM 30.2 °F 25.4 °F 30.2 °F 100% 30.40 in 9.0 mi NW 4.6 mph - N/A   Overcast
6:38 AM 30.2 °F 25.4 °F 30.2 °F 100% 30.40 in 7.0 mi Variable 4.6 mph - N/A   Light Freezing Rain
6:42 AM 30.2 °F 24.3 °F 30.2 °F 100% 30.41 in 7.0 mi NW 5.8 mph - N/A   Light Freezing Rain
6:47 AM 30.2 °F 23.4 °F 30.2 °F 100% 30.41 in 7.0 mi WNW 6.9 mph - N/A   Overcast
6:55 AM 30.9 °F 26.2 °F 30.7 °F 99% 30.42 in 7.0 mi West 4.6 mph - 0.00 in   Overcast
7:15 AM 30.2 °F 24.3 °F 30.2 °F 100% 30.42 in 5.0 mi NW 5.8 mph - N/A   Overcast
7:50 AM 32.0 °F 25.6 °F 30.2 °F 93% 30.43 in 3.0 mi NW 6.9 mph - N/A   Overcast
7:55 AM 31.3 °F 25.6 °F 31.1 °F 99% 30.43 in 3.0 mi WNW 5.8 mph - N/A   Overcast
8:43 AM 32.0 °F 25.6 °F 32.0 °F 100% 30.43 in 3.0 mi NW 6.9 mph - N/A   Overcast
8:50 AM 32.0 °F 26.4 °F 32.0 °F 100% 30.39 in 3.0 mi NW 5.8 mph - N/A Snow Light Snow
8:55 AM 31.8 °F 27.3 °F 31.6 °F 99% 30.43 in 3.0 mi NNW 4.6 mph - 0.00 in Snow Light Snow
9:12 AM 32.0 °F 25.6 °F 32.0 °F 100% 30.44 in 5.0 mi NNW 6.9 mph - N/A   Overcast
9:19 AM 32.0 °F 26.4 °F 32.0 °F 100% 30.43 in 4.0 mi NNW 5.8 mph - N/A   Overcast
9:25 AM 32.0 °F 26.4 °F 32.0 °F 100% 30.43 in 2.5 mi NW 5.8 mph - N/A   Overcast
9:31 AM 32.0 °F 24.8 °F 32.0 °F 100% 30.44 in 3.0 mi NW 8.1 mph - N/A   Overcast
9:37 AM 32.0 °F 26.4 °F 32.0 °F 100% 30.44 in 5.0 mi NW 5.8 mph - N/A   Overcast
9:42 AM 32.0 °F 26.4 °F 32.0 °F 100% 30.40 in 4.0 mi NW 5.8 mph - N/A   Overcast
9:55 AM 32.5 °F 26.2 °F 32.4 °F 99% 30.44 in 4.0 mi NW 6.9 mph - 0.00 in   Overcast
10:04 AM 32.0 °F 26.4 °F 32.0 °F 100% 30.40 in 3.0 mi NW 5.8 mph - N/A Snow Light Snow
10:55 AM 33.6 °F 27.5 °F 33.3 °F 99% 30.45 in 4.0 mi NW 6.9 mph - 0.00 in   Overcast
11:55 AM 32.9 °F 25.9 °F 32.7 °F 99% 30.45 in 10.0 mi NW 8.1 mph - N/A   Overcast
12:19 PM 33.8 °F 26.4 °F 33.8 °F 100% 30.44 in 10.0 mi North 9.2 mph - N/A   Overcast
12:55 PM 32.9 °F 25.3 °F 32.7 °F 99% 30.43 in 10.0 mi NW 9.2 mph - N/A   Overcast
1:31 PM 33.8 °F 27.0 °F 32.0 °F 93% 30.42 in 10.0 mi NW 8.1 mph - N/A   Overcast
1:48 PM 33.8 °F 28.6 °F 32.0 °F 93% 30.42 in 10.0 mi NW 5.8 mph - N/A   Overcast
1:55 PM 33.4 °F 30.4 °F 32.2 °F 95% 30.42 in 10.0 mi NW 3.5 mph - 0.00 in   Overcast
2:09 PM 33.8 °F 27.7 °F 32.0 °F 93% 30.41 in 10.0 mi NNW 6.9 mph - N/A   Overcast
2:15 PM 33.8 °F 28.6 °F 32.0 °F 93% 30.42 in 10.0 mi NNW 5.8 mph - N/A   Overcast
2:21 PM 33.8 °F 27.0 °F 32.0 °F 93% 30.41 in 10.0 mi NNW 8.1 mph - N/A   Overcast
2:27 PM 33.8 °F 28.6 °F 32.0 °F 93% 30.42 in 10.0 mi NNW 5.8 mph - N/A   Overcast
2:32 PM 33.8 °F 28.6 °F 32.0 °F 93% 30.41 in 10.0 mi NNW 5.8 mph - N/A   Overcast
2:52 PM 33.8 °F 30.8 °F 32.0 °F 93% 30.42 in 10.0 mi Variable 3.5 mph - N/A   Overcast
2:55 PM 33.4 °F 30.4 °F 31.5 °F 92% 30.42 in 10.0 mi NW 3.5 mph - 0.00 in   Overcast
3:40 PM 33.8 °F 29.6 °F 32.0 °F 93% 30.42 in 10.0 mi NW 4.6 mph - N/A   Overcast
3:43 PM 33.8 °F 28.6 °F 30.2 °F 87% 30.41 in 10.0 mi WNW 5.8 mph - N/A   Overcast
3:55 PM 33.3 °F 28.9 °F 31.5 °F 93% 30.41 in 10.0 mi NW 4.6 mph - 0.00 in Snow Light Snow Grains
4:07 PM 33.8 °F 30.8 °F 32.0 °F 93% 30.41 in 10.0 mi NW 3.5 mph - N/A   Overcast
4:38 PM 33.8 °F 28.6 °F 32.0 °F 93% 30.40 in 10.0 mi NNW 5.8 mph - N/A Snow Light Snow Grains
4:41 PM 33.8 °F 28.6 °F 32.0 °F 93% 30.40 in 10.0 mi NNW 5.8 mph - N/A   Overcast
4:54 PM 33.8 °F 28.6 °F 32.0 °F 93% 30.40 in 10.0 mi NNW 5.8 mph - N/A   Overcast
4:55 PM 33.1 °F 27.7 °F 31.6 °F 94% 30.40 in 10.0 mi NNW 5.8 mph - 0.00 in   Overcast
5:31 PM 32.0 °F 27.5 °F 32.0 °F 100% 30.39 in 10.0 mi NNW 4.6 mph - N/A   Overcast
5:35 PM 32.0 °F 28.7 °F 32.0 °F 100% 30.39 in 10.0 mi North 3.5 mph - N/A   Overcast
5:38 PM 32.0 °F 27.5 °F 32.0 °F 100% 30.39 in 10.0 mi North 4.6 mph - N/A   Overcast
5:55 PM 32.5 °F 29.3 °F 31.5 °F 96% 30.39 in 10.0 mi NNW 3.5 mph - 0.00 in   Overcast
6:08 PM 32.0 °F 27.5 °F 32.0 °F 100% 30.39 in 10.0 mi North 4.6 mph - N/A   Overcast
6:55 PM 32.2 °F 28.9 °F 31.1 °F 96% 30.40 in 10.0 mi North 3.5 mph - N/A   Overcast
7:55 PM 31.8 °F 28.5 °F 30.6 °F 95% 30.40 in 10.0 mi North 3.5 mph - N/A   Overcast
8:06 PM 32.0 °F - 30.2 °F 93% 30.40 in 10.0 mi Calm Calm - N/A   Overcast
8:29 PM 32.0 °F - 30.2 °F 93% 30.40 in 10.0 mi Calm Calm - N/A   Overcast
8:55 PM 32.0 °F - 30.6 °F 94% 30.40 in 10.0 mi Calm Calm - N/A   Overcast
9:55 PM 31.5 °F - 31.3 °F 99% 30.40 in 10.0 mi Calm Calm - N/A   Overcast
9:58 PM 32.0 °F - 32.0 °F 100% 30.40 in 10.0 mi Calm Calm - N/A   Overcast
10:55 PM 31.3 °F - 31.1 °F 99% 30.40 in 10.0 mi Calm Calm - N/A   Overcast
11:16 PM 32.0 °F - 30.2 °F 93% 30.40 in 10.0 mi Calm Calm - N/A   Overcast
11:55 PM 31.1 °F - 30.9 °F 99% 30.40 in 10.0 mi Calm Calm - N/A   Overcast